Retour au catalogue

ARIANE 5 R/B

ActifHEO
NORAD 53766·ROCKET BODY·🇫🇷 France

Lancé Sep 7, 2022 depuis Guiana Space Centre

Loading…

Prochains Passages (prochaines 24 heures)

TLE

FraisSource: Space-Track

Époque: Sep 14, 2026, 03:22 UTC

1 53766U 22110B   26257.14083177  .00004579  00000-0  66245-3 0  9997
2 53766   4.1446 158.0568 7643370 149.6420 294.4448  1.85904813 13230

Suivez ARIANE 5 R/B en temps réel avec AllMySat

Download on the App Store